Location: Stark Bayou Observatory
(30.3992°N, 88.7844°W)
Time: 13:41:58
(UTC-05:00)

ISS - Visible Passes

Search period start: 19 March 2019 00:00
Search period end: 29 March 2019 00:00
Orbit: 406 x 411 km, 51.6° (Epoch: 20 March)

Date Brightness Start Highest point End Pass type
(mag) Time Alt. Az. Time Alt. Az. Time Alt. Az.
19 Mar -2.4 05:44:07 24° SSW 05:44:07 24° SSW 05:45:56 10° SSE visible
19 Mar -3.4 20:39:54 10° SW 20:42:56 63° WNW 20:42:56 63° WNW visible
20 Mar -3.6 19:49:00 10° SSW 19:52:12 51° SE 19:55:13 11° NE visible
20 Mar -0.4 21:27:24 10° WNW 21:28:02 12° NW 21:28:02 12° NW visible
21 Mar -1.4 20:35:08 10° W 20:37:48 22° NW 20:40:06 12° N visible
22 Mar -2.6 19:43:32 10° WSW 19:46:41 43° NW 19:49:51 10° NNE visible
24 Mar -1.0 19:39:05 10° W 19:41:19 17° NW 19:43:32 10° N visible
